Buoy 46563

sailwx.info

Track history (hours):
 
Tides and Currents Weather Stations Pressure Air Temp Water Temp Dewpoint Dewpoint Depression Visibility Wind Speed Wind Dir Waves Ship Positions

Drifting buoy 46563

Last reported at 2014-Nov-24 14:00 UTC. Time now 2014-Nov-24 15:21 UTC.
Position N 26°08' W 124°08'.

Water temperature 22.1 ° C

Date/timePositionNaut miles runAvg speedWind from/ knotsBaromVisibWave heightAir tempDewpointWater temp
2014-Nov-24 14:00N 26°08' W 124°08'1 0.8 22.1
2014-Nov-24 13:00N 26°08' W 124°09'1 1.1 22.1
2014-Nov-24 12:00N 26°08' W 124°08'0 0.0 22.1
2014-Nov-24 11:00N 26°08' W 124°08'1 0.8 22.1
2014-Nov-24 10:00N 26°09' W 124°08'0 0.0 22.1
2014-Nov-24 09:00N 26°09' W 124°08'0 0.1 22.1
2014-Nov-24 08:00N 26°09' W 124°08'4 0.9 22.1
2014-Nov-24 04:00N 26°11' W 124°11'0 0.0 22.1
2014-Nov-24 03:00N 26°11' W 124°11'0 0.0 22.1
2014-Nov-24 02:00N 26°11' W 124°11'1 0.5 22.1
2014-Nov-24 01:00N 26°11' W 124°12'0 0.0 22.2
2014-Nov-24 00:00N 26°11' W 124°12'0 0.2 22.2
2014-Nov-23 23:00N 26°11' W 124°12'0 0.2 22.2
2014-Nov-23 22:00N 26°11' W 124°12'2 0.9 22.2
2014-Nov-23 20:00N 26°11' W 124°14'1 0.8 22.2
2014-Nov-23 19:00N 26°11' W 124°13'1 0.6 22.2
2014-Nov-23 18:00N 26°11' W 124°13'1 0.8 22.2
2014-Nov-23 17:00N 26°11' W 124°14'1 0.3 22.1
2014-Nov-23 15:00N 26°11' W 124°14'0 0.0 22.1
2014-Nov-23 14:00N 26°11' W 124°14'1 0.8 22.1
2014-Nov-23 13:00N 26°12' W 124°15'0 0.0 22.2
2014-Nov-23 12:00N 26°12' W 124°15'2 1.6 22.2
2014-Nov-23 11:00N 26°13' W 124°16'2 1.8 22.2
2014-Nov-23 10:00N 26°12' W 124°15'2 1.8 22.2
2014-Nov-23 09:00N 26°13' W 124°16'1 0.2 22.2
2014-Nov-23 06:00N 26°14' W 124°16'0 0.0 22.2
2014-Nov-23 05:00N 26°14' W 124°16'3 1.1 22.2
2014-Nov-23 02:00N 26°16' W 124°19'1 0.3 22.2
2014-Nov-23 00:00N 26°16' W 124°19'3 2.9 22.3
2014-Nov-22 23:00N 26°17' W 124°22'0 0.0 22.3
2014-Nov-22 22:00N 26°17' W 124°22'0 0.0 22.2
2014-Nov-22 21:00N 26°17' W 124°22'1 0.5 22.2
2014-Nov-22 20:00N 26°17' W 124°22'0 0.4 22.2
2014-Nov-22 19:00N 26°17' W 124°22'0 0.1 22.2
2014-Nov-22 17:00N 26°17' W 124°22'1 0.6 22.2
2014-Nov-22 15:00N 26°18' W 124°23'0 0.0 22.2
2014-Nov-22 14:00N 26°18' W 124°23'1 0.6 22.2
2014-Nov-22 13:00N 26°19' W 124°23'1 0.6 22.1
2014-Nov-22 12:00N 26°19' W 124°23'0 0.0 22.1
2014-Nov-22 11:00N 26°19' W 124°23'1 0.5 22.1
2014-Nov-22 09:00N 26°20' W 124°23'0 0.1 22.2
2014-Nov-22 07:00N 26°20' W 124°23'0 0.0 22.3
2014-Nov-22 06:00N 26°20' W 124°23'2 2.1 22.3
2014-Nov-22 05:00N 26°22' W 124°22'0 0.0 22.3
2014-Nov-22 03:00N 26°22' W 124°22'0 0.3 22.3
2014-Nov-22 02:00N 26°22' W 124°22'1 1.3 22.3
2014-Nov-22 01:00N 26°23' W 124°21'0 0.0 22.4
2014-Nov-22 00:00N 26°23' W 124°21'1 0.5 22.4
2014-Nov-21 23:00N 26°23' W 124°22'1 0.3 22.4
2014-Nov-21 21:00N 26°23' W 124°22'0 0.0 22.4
2014-Nov-21 20:00N 26°23' W 124°22'1 0.6 22.4
2014-Nov-21 18:00N 26°23' W 124°20'0 0.0 22.4
2014-Nov-21 17:00N 26°23' W 124°20'1 0.2 22.4
2014-Nov-21 13:00N 26°22' W 124°20'0 0.0 22.3
2014-Nov-21 11:00N 26°22' W 124°20'1 0.8 22.4
2014-Nov-21 10:00N 26°22' W 124°19'2 1.7 22.4
2014-Nov-21 09:00N 26°21' W 124°17'0 0.0 22.4
2014-Nov-21 05:00N 26°21' W 124°17'0 0.0 22.4
2014-Nov-21 04:00N 26°21' W 124°17'0 0.0 22.4
2014-Nov-21 03:00N 26°21' W 124°17'0 0.0 22.5
2014-Nov-21 01:00N 26°21' W 124°17'1 0.6 22.5
2014-Nov-21 00:00N 26°20' W 124°17'1 0.4 22.5
2014-Nov-20 22:00N 26°20' W 124°18'0 0.1 22.5
2014-Nov-20 21:00N 26°20' W 124°18'2 0.5 22.6
2014-Nov-20 18:00N 26°19' W 124°19'0 0.3 22.4
2014-Nov-20 17:00N 26°19' W 124°19'1 0.5 22.4
2014-Nov-20 14:00N 26°17' W 124°19'1 0.5 22.4
2014-Nov-20 13:00N 26°17' W 124°20'1 1.3 22.4
2014-Nov-20 12:00N 26°16' W 124°20'0 0.0 22.4
2014-Nov-20 11:00N 26°16' W 124°20'2 2.1 22.4
2014-Nov-20 10:00N 26°14' W 124°22'0 0.0 22.4
2014-Nov-20 09:00N 26°14' W 124°22'0 0.0 22.4
2014-Nov-20 06:00N 26°14' W 124°22'0 0.0 22.4
2014-Nov-20 05:00N 26°14' W 124°22'1 0.5 22.4
2014-Nov-20 04:00N 26°14' W 124°22'1 1.0 22.4
2014-Nov-20 03:00N 26°14' W 124°23'0 0.5 22.4
2014-Nov-20 02:00N 26°13' W 124°23'0 0.0 22.4
2014-Nov-20 01:00N 26°13' W 124°23'1 0.5 22.4
2014-Nov-20 00:00N 26°13' W 124°23'0 0.0 22.4
2014-Nov-19 23:00N 26°13' W 124°23'1 1.3 22.5
2014-Nov-19 22:00N 26°13' W 124°25'1 0.8 22.5
2014-Nov-19 21:00N 26°12' W 124°25'1 0.2 22.5
2014-Nov-19 18:00N 26°12' W 124°26'0 0.0 22.3
2014-Nov-19 17:00N 26°12' W 124°26'0 0.0 22.3
2014-Nov-19 16:00N 26°12' W 124°26'1 0.6 22.3
2014-Nov-19 14:00N 26°11' W 124°27'0 0.0 22.2
2014-Nov-19 13:00N 26°11' W 124°27'1 1.2 22.2
2014-Nov-19 12:00N 26°11' W 124°28'1 0.8 22.2
2014-Nov-19 11:00N 26°10' W 124°29'0 0.1 22.2
2014-Nov-19 10:00N 26°10' W 124°29'0 0.0 22.2
2014-Nov-19 09:00N 26°10' W 124°29'1 0.4 22.2
2014-Nov-19 06:00N 26°10' W 124°30'1 0.8 22.2
2014-Nov-19 05:00N 26°09' W 124°31'0 0.0 22.2
2014-Nov-19 04:00N 26°09' W 124°31'1 1.1 22.3
2014-Nov-19 03:00N 26°09' W 124°32'1 0.5 22.3
2014-Nov-19 02:00N 26°09' W 124°32'1 1.2 22.4
2014-Nov-19 01:00N 26°10' W 124°34'1 0.6 22.6
2014-Nov-19 00:00N 26°09' W 124°34'1 0.6 22.7
2014-Nov-18 23:00N 26°10' W 124°34'2 1.2 22.8
2014-Nov-18 21:00N 26°08' W 124°36'1 0.2 22.6
2014-Nov-18 18:00N 26°08' W 124°37'1 0.7 22.3
2014-Nov-18 17:00N 26°08' W 124°37'2 0.5 22.1
2014-Nov-18 13:00N 26°08' W 124°40'0 0.3 22.1
2014-Nov-18 12:00N 26°08' W 124°40'1 1.3 22.1
2014-Nov-18 11:00N 26°08' W 124°41'0 0.4 22.1
2014-Nov-18 10:00N 26°08' W 124°41'2 0.8 22.1
2014-Nov-18 08:00N 26°07' W 124°43'0 0.0 22.1
2014-Nov-18 06:00N 26°07' W 124°43'0 0.0 22.1
2014-Nov-18 05:00N 26°07' W 124°43'1 0.8 22.1
2014-Nov-18 04:00N 26°07' W 124°43'0 0.0 22.1
2014-Nov-18 03:00N 26°07' W 124°43'1 0.7 22.2
2014-Nov-18 02:00N 26°07' W 124°44'1 0.6 22.3
2014-Nov-18 01:00N 26°08' W 124°44'4 1.9 22.4
2014-Nov-17 23:00N 26°08' W 124°49'0 0.0 22.4
2014-Nov-17 22:00N 26°08' W 124°49'0 0.4 22.4
2014-Nov-17 21:00N 26°08' W 124°48'0 0.4 22.3
2014-Nov-17 20:00N 26°08' W 124°49'0 0.0 22.3
2014-Nov-17 19:00N 26°08' W 124°49'0 0.0 22.3
2014-Nov-17 17:00N 26°08' W 124°49'2 0.8 22.2
2014-Nov-17 15:00N 26°08' W 124°50'0 0.0 22.2
2014-Nov-17 14:00N 26°08' W 124°50'1 0.8 22.2
2014-Nov-17 13:00N 26°07' W 124°51'0 0.0 22.2
2014-Nov-17 12:00N 26°07' W 124°51'1 0.4 22.2
2014-Nov-17 10:00N 26°08' W 124°52'1 1.2 22.2
2014-Nov-17 09:00N 26°07' W 124°53'0 0.0 22.2
2014-Nov-17 08:00N 26°07' W 124°53'0 0.0 22.2
2014-Nov-17 07:00N 26°07' W 124°53'0 0.0 22.2
2014-Nov-17 06:00N 26°07' W 124°53'0 0.0 22.2
2014-Nov-17 05:00N 26°07' W 124°53'1 1.1 22.2
2014-Nov-17 04:00N 26°07' W 124°54'0 0.0 22.3
2014-Nov-17 02:00N 26°07' W 124°54'1 0.5 22.3
2014-Nov-17 01:00N 26°07' W 124°55'0 0.0 22.3
2014-Nov-17 00:00N 26°07' W 124°55'1 0.7 22.3
2014-Nov-16 23:00N 26°08' W 124°54'1 1.2 22.3
2014-Nov-16 22:00N 26°08' W 124°56'2 0.7 22.2
2014-Nov-16 19:00N 26°08' W 124°58'0 0.0 22.1
2014-Nov-16 18:00N 26°08' W 124°58'0 0.0 22.0
2014-Nov-16 16:00N 26°08' W 124°58'2 1.5 22.0
2014-Nov-16 15:00N 26°08' W 124°60'0 0.0 21.9
2014-Nov-16 14:00N 26°08' W 124°60'0 0.3 22.0
2014-Nov-16 13:00N 26°07' W 125°00'1 0.5 22.0
2014-Nov-16 12:00N 26°07' W 125°01'0 0.4 22.0
2014-Nov-16 11:00N 26°07' W 125°00'1 0.8 22.0
2014-Nov-16 10:00N 26°07' W 125°01'0 0.0 22.1
2014-Nov-16 09:00N 26°07' W 125°01'0 0.0 22.1
2014-Nov-16 08:00N 26°07' W 125°01'1 0.4 22.1
2014-Nov-16 05:00N 26°07' W 125°02'1 0.4 22.2
2014-Nov-16 03:00N 26°06' W 125°03'0 0.0 22.3
2014-Nov-16 02:00N 26°06' W 125°03'1 1.2 22.3
2014-Nov-16 01:00N 26°05' W 125°04'1 0.5 22.3
2014-Nov-16 00:00N 26°05' W 125°05'1 0.6 22.3
2014-Nov-15 22:00N 26°05' W 125°06'1 0.1 22.3
2014-Nov-15 18:00N 26°05' W 125°07'0 0.0 22.2
2014-Nov-15 17:00N 26°05' W 125°07'1 1.2 22.2
2014-Nov-15 16:00N 26°04' W 125°08'0 0.0 22.2
2014-Nov-15 14:00N 26°04' W 125°08'1 0.6 22.2
2014-Nov-15 12:00N 26°04' W 125°09'0 0.0 22.1
2014-Nov-15 11:00N 26°04' W 125°09'2 0.6 22.1
2014-Nov-15 08:00N 26°03' W 125°11'0 0.0 22.1
2014-Nov-15 06:00N 26°03' W 125°11'0 0.0 22.2
2014-Nov-15 05:00N 26°03' W 125°11'1 0.5 22.2
2014-Nov-15 04:00N 26°03' W 125°11'1 0.5 22.2
2014-Nov-15 03:00N 26°03' W 125°12'2 0.7 22.2
2014-Nov-15 00:00N 26°01' W 125°13'0 0.0 22.3
2014-Nov-14 22:00N 26°01' W 125°13'1 0.3 22.3
2014-Nov-14 20:00N 26°01' W 125°14'1 0.4 22.2
2014-Nov-14 18:00N 26°01' W 125°14'1 0.5 22.1
2014-Nov-14 17:00N 26°01' W 125°15'   22.1
Track history (hours):
 
Tides and Currents Weather Stations Pressure Air Temp Water Temp Dewpoint Dewpoint Depression Visibility Wind Speed Wind Dir Waves Ship Positions

Drifting buoy 46563

Last reported at 2014-Nov-24 14:00 UTC. Time now 2014-Nov-24 15:21 UTC.
Position N 26°08' W 124°08'.

Water temperature 22.1 ° C

Date/timePositionNaut miles runAvg speedWind from/ knotsBaromVisibWave heightAir tempDewpointWater temp
2014-Nov-24 14:00N 26°08' W 124°08'1 0.8 22.1
2014-Nov-24 13:00N 26°08' W 124°09'1 1.1 22.1
2014-Nov-24 12:00N 26°08' W 124°08'0 0.0 22.1
2014-Nov-24 11:00N 26°08' W 124°08'1 0.8 22.1
2014-Nov-24 10:00N 26°09' W 124°08'0 0.0 22.1
2014-Nov-24 09:00N 26°09' W 124°08'0 0.1 22.1
2014-Nov-24 08:00N 26°09' W 124°08'4 0.9 22.1
2014-Nov-24 04:00N 26°11' W 124°11'0 0.0 22.1
2014-Nov-24 03:00N 26°11' W 124°11'0 0.0 22.1
2014-Nov-24 02:00N 26°11' W 124°11'1 0.5 22.1
2014-Nov-24 01:00N 26°11' W 124°12'0 0.0 22.2
2014-Nov-24 00:00N 26°11' W 124°12'0 0.2 22.2
2014-Nov-23 23:00N 26°11' W 124°12'0 0.2 22.2
2014-Nov-23 22:00N 26°11' W 124°12'2 0.9 22.2
2014-Nov-23 20:00N 26°11' W 124°14'1 0.8 22.2
2014-Nov-23 19:00N 26°11' W 124°13'1 0.6 22.2
2014-Nov-23 18:00N 26°11' W 124°13'1 0.8 22.2
2014-Nov-23 17:00N 26°11' W 124°14'1 0.3 22.1
2014-Nov-23 15:00N 26°11' W 124°14'0 0.0 22.1
2014-Nov-23 14:00N 26°11' W 124°14'1 0.8 22.1
2014-Nov-23 13:00N 26°12' W 124°15'0 0.0 22.2
2014-Nov-23 12:00N 26°12' W 124°15'2 1.6 22.2
2014-Nov-23 11:00N 26°13' W 124°16'2 1.8 22.2
2014-Nov-23 10:00N 26°12' W 124°15'2 1.8 22.2
2014-Nov-23 09:00N 26°13' W 124°16'1 0.2 22.2
2014-Nov-23 06:00N 26°14' W 124°16'0 0.0 22.2
2014-Nov-23 05:00N 26°14' W 124°16'3 1.1 22.2
2014-Nov-23 02:00N 26°16' W 124°19'1 0.3 22.2
2014-Nov-23 00:00N 26°16' W 124°19'3 2.9 22.3
2014-Nov-22 23:00N 26°17' W 124°22'0 0.0 22.3
2014-Nov-22 22:00N 26°17' W 124°22'0 0.0 22.2
2014-Nov-22 21:00N 26°17' W 124°22'1 0.5 22.2
2014-Nov-22 20:00N 26°17' W 124°22'0 0.4 22.2
2014-Nov-22 19:00N 26°17' W 124°22'0 0.1 22.2
2014-Nov-22 17:00N 26°17' W 124°22'1 0.6 22.2
2014-Nov-22 15:00N 26°18' W 124°23'0 0.0 22.2
2014-Nov-22 14:00N 26°18' W 124°23'1 0.6 22.2
2014-Nov-22 13:00N 26°19' W 124°23'1 0.6 22.1
2014-Nov-22 12:00N 26°19' W 124°23'0 0.0 22.1
2014-Nov-22 11:00N 26°19' W 124°23'1 0.5 22.1
2014-Nov-22 09:00N 26°20' W 124°23'0 0.1 22.2
2014-Nov-22 07:00N 26°20' W 124°23'0 0.0 22.3
2014-Nov-22 06:00N 26°20' W 124°23'2 2.1 22.3
2014-Nov-22 05:00N 26°22' W 124°22'0 0.0 22.3
2014-Nov-22 03:00N 26°22' W 124°22'0 0.3 22.3
2014-Nov-22 02:00N 26°22' W 124°22'1 1.3 22.3
2014-Nov-22 01:00N 26°23' W 124°21'0 0.0 22.4
2014-Nov-22 00:00N 26°23' W 124°21'1 0.5 22.4
2014-Nov-21 23:00N 26°23' W 124°22'1 0.3 22.4
2014-Nov-21 21:00N 26°23' W 124°22'0 0.0 22.4
2014-Nov-21 20:00N 26°23' W 124°22'1 0.6 22.4
2014-Nov-21 18:00N 26°23' W 124°20'0 0.0 22.4
2014-Nov-21 17:00N 26°23' W 124°20'1 0.2 22.4
2014-Nov-21 13:00N 26°22' W 124°20'0 0.0 22.3
2014-Nov-21 11:00N 26°22' W 124°20'1 0.8 22.4
2014-Nov-21 10:00N 26°22' W 124°19'2 1.7 22.4
2014-Nov-21 09:00N 26°21' W 124°17'0 0.0 22.4
2014-Nov-21 05:00N 26°21' W 124°17'0 0.0 22.4
2014-Nov-21 04:00N 26°21' W 124°17'0 0.0 22.4
2014-Nov-21 03:00N 26°21' W 124°17'0 0.0 22.5
2014-Nov-21 01:00N 26°21' W 124°17'1 0.6 22.5
2014-Nov-21 00:00N 26°20' W 124°17'1 0.4 22.5
2014-Nov-20 22:00N 26°20' W 124°18'0 0.1 22.5
2014-Nov-20 21:00N 26°20' W 124°18'2 0.5 22.6
2014-Nov-20 18:00N 26°19' W 124°19'0 0.3 22.4
2014-Nov-20 17:00N 26°19' W 124°19'1 0.5 22.4
2014-Nov-20 14:00N 26°17' W 124°19'1 0.5 22.4
2014-Nov-20 13:00N 26°17' W 124°20'1 1.3 22.4
2014-Nov-20 12:00N 26°16' W 124°20'0 0.0 22.4
2014-Nov-20 11:00N 26°16' W 124°20'2 2.1 22.4
2014-Nov-20 10:00N 26°14' W 124°22'0 0.0 22.4
2014-Nov-20 09:00N 26°14' W 124°22'0 0.0 22.4
2014-Nov-20 06:00N 26°14' W 124°22'0 0.0 22.4
2014-Nov-20 05:00N 26°14' W 124°22'1 0.5 22.4
2014-Nov-20 04:00N 26°14' W 124°22'1 1.0 22.4
2014-Nov-20 03:00N 26°14' W 124°23'0 0.5 22.4
2014-Nov-20 02:00N 26°13' W 124°23'0 0.0 22.4
2014-Nov-20 01:00N 26°13' W 124°23'1 0.5 22.4
2014-Nov-20 00:00N 26°13' W 124°23'0 0.0 22.4
2014-Nov-19 23:00N 26°13' W 124°23'1 1.3 22.5
2014-Nov-19 22:00N 26°13' W 124°25'1 0.8 22.5
2014-Nov-19 21:00N 26°12' W 124°25'1 0.2 22.5
2014-Nov-19 18:00N 26°12' W 124°26'0 0.0 22.3
2014-Nov-19 17:00N 26°12' W 124°26'0 0.0 22.3
2014-Nov-19 16:00N 26°12' W 124°26'1 0.6 22.3
2014-Nov-19 14:00N 26°11' W 124°27'0 0.0 22.2
2014-Nov-19 13:00N 26°11' W 124°27'1 1.2 22.2
2014-Nov-19 12:00N 26°11' W 124°28'1 0.8 22.2
2014-Nov-19 11:00N 26°10' W 124°29'0 0.1 22.2
2014-Nov-19 10:00N 26°10' W 124°29'0 0.0 22.2
2014-Nov-19 09:00N 26°10' W 124°29'1 0.4 22.2
2014-Nov-19 06:00N 26°10' W 124°30'1 0.8 22.2
2014-Nov-19 05:00N 26°09' W 124°31'0 0.0 22.2
2014-Nov-19 04:00N 26°09' W 124°31'1 1.1 22.3
2014-Nov-19 03:00N 26°09' W 124°32'1 0.5 22.3
2014-Nov-19 02:00N 26°09' W 124°32'1 1.2 22.4
2014-Nov-19 01:00N 26°10' W 124°34'1 0.6 22.6
2014-Nov-19 00:00N 26°09' W 124°34'1 0.6 22.7
2014-Nov-18 23:00N 26°10' W 124°34'2 1.2 22.8
2014-Nov-18 21:00N 26°08' W 124°36'1 0.2 22.6
2014-Nov-18 18:00N 26°08' W 124°37'1 0.7 22.3
2014-Nov-18 17:00N 26°08' W 124°37'2 0.5 22.1
2014-Nov-18 13:00N 26°08' W 124°40'0 0.3 22.1
2014-Nov-18 12:00N 26°08' W 124°40'1 1.3 22.1
2014-Nov-18 11:00N 26°08' W 124°41'0 0.4 22.1
2014-Nov-18 10:00N 26°08' W 124°41'2 0.8 22.1
2014-Nov-18 08:00N 26°07' W 124°43'0 0.0 22.1
2014-Nov-18 06:00N 26°07' W 124°43'0 0.0 22.1
2014-Nov-18 05:00N 26°07' W 124°43'1 0.8 22.1
2014-Nov-18 04:00N 26°07' W 124°43'0 0.0 22.1
2014-Nov-18 03:00N 26°07' W 124°43'1 0.7 22.2
2014-Nov-18 02:00N 26°07' W 124°44'1 0.6 22.3
2014-Nov-18 01:00N 26°08' W 124°44'4 1.9 22.4
2014-Nov-17 23:00N 26°08' W 124°49'0 0.0 22.4
2014-Nov-17 22:00N 26°08' W 124°49'0 0.4 22.4
2014-Nov-17 21:00N 26°08' W 124°48'0 0.4 22.3
2014-Nov-17 20:00N 26°08' W 124°49'0 0.0 22.3
2014-Nov-17 19:00N 26°08' W 124°49'0 0.0 22.3
2014-Nov-17 17:00N 26°08' W 124°49'2 0.8 22.2
2014-Nov-17 15:00N 26°08' W 124°50'0 0.0 22.2
2014-Nov-17 14:00N 26°08' W 124°50'1 0.8 22.2
2014-Nov-17 13:00N 26°07' W 124°51'0 0.0 22.2
2014-Nov-17 12:00N 26°07' W 124°51'1 0.4 22.2
2014-Nov-17 10:00N 26°08' W 124°52'1 1.2 22.2
2014-Nov-17 09:00N 26°07' W 124°53'0 0.0 22.2
2014-Nov-17 08:00N 26°07' W 124°53'0 0.0 22.2
2014-Nov-17 07:00N 26°07' W 124°53'0 0.0 22.2
2014-Nov-17 06:00N 26°07' W 124°53'0 0.0 22.2
2014-Nov-17 05:00N 26°07' W 124°53'1 1.1 22.2
2014-Nov-17 04:00N 26°07' W 124°54'0 0.0 22.3
2014-Nov-17 02:00N 26°07' W 124°54'1 0.5 22.3
2014-Nov-17 01:00N 26°07' W 124°55'0 0.0 22.3
2014-Nov-17 00:00N 26°07' W 124°55'1 0.7 22.3
2014-Nov-16 23:00N 26°08' W 124°54'1 1.2 22.3
2014-Nov-16 22:00N 26°08' W 124°56'2 0.7 22.2
2014-Nov-16 19:00N 26°08' W 124°58'0 0.0 22.1
2014-Nov-16 18:00N 26°08' W 124°58'0 0.0 22.0
2014-Nov-16 16:00N 26°08' W 124°58'2 1.5 22.0
2014-Nov-16 15:00N 26°08' W 124°60'0 0.0 21.9
2014-Nov-16 14:00N 26°08' W 124°60'0 0.3 22.0
2014-Nov-16 13:00N 26°07' W 125°00'1 0.5 22.0
2014-Nov-16 12:00N 26°07' W 125°01'0 0.4 22.0
2014-Nov-16 11:00N 26°07' W 125°00'1 0.8 22.0
2014-Nov-16 10:00N 26°07' W 125°01'0 0.0 22.1
2014-Nov-16 09:00N 26°07' W 125°01'0 0.0 22.1
2014-Nov-16 08:00N 26°07' W 125°01'1 0.4 22.1
2014-Nov-16 05:00N 26°07' W 125°02'1 0.4 22.2
2014-Nov-16 03:00N 26°06' W 125°03'0 0.0 22.3
2014-Nov-16 02:00N 26°06' W 125°03'1 1.2 22.3
2014-Nov-16 01:00N 26°05' W 125°04'1 0.5 22.3
2014-Nov-16 00:00N 26°05' W 125°05'1 0.6 22.3
2014-Nov-15 22:00N 26°05' W 125°06'1 0.1 22.3
2014-Nov-15 18:00N 26°05' W 125°07'0 0.0 22.2
2014-Nov-15 17:00N 26°05' W 125°07'1 1.2 22.2
2014-Nov-15 16:00N 26°04' W 125°08'0 0.0 22.2
2014-Nov-15 14:00N 26°04' W 125°08'1 0.6 22.2
2014-Nov-15 12:00N 26°04' W 125°09'0 0.0 22.1
2014-Nov-15 11:00N 26°04' W 125°09'2 0.6 22.1
2014-Nov-15 08:00N 26°03' W 125°11'0 0.0 22.1
2014-Nov-15 06:00N 26°03' W 125°11'0 0.0 22.2
2014-Nov-15 05:00N 26°03' W 125°11'1 0.5 22.2
2014-Nov-15 04:00N 26°03' W 125°11'1 0.5 22.2
2014-Nov-15 03:00N 26°03' W 125°12'2 0.7 22.2
2014-Nov-15 00:00N 26°01' W 125°13'0 0.0 22.3
2014-Nov-14 22:00N 26°01' W 125°13'1 0.3 22.3
2014-Nov-14 20:00N 26°01' W 125°14'1 0.4 22.2
2014-Nov-14 18:00N 26°01' W 125°14'1 0.5 22.1
2014-Nov-14 17:00N 26°01' W 125°15'   22.1

Dump ship's entire track history